Showing default

CALSPHERE 4(A), 1520

Orbit data source: Space-Track

CALSPHERE 4(A), 1520 is a payload satellite owned by NRL (US) in LEO that was launched on Fri, 13 Aug 1965 UTC via a THOR ABLESTAR launch vehicle from the Air Force Western Test Range (AFWTR). Payloads include a variety of satellites, spacecraft, and rockets equipped with specific instruments for various scientific and technological missions. These include communications satellites like Starlink; space stations such as the ISS; scientific satellites like the Hubble; Earth observation satellites from companies like Planet Labs, Umbra, and HawkEye 360; GPS; miniature CubeSats for education and research; and military/defense satellites.

Loading next visibility...
CALSPHERE 4(A) details
Identifier
1520, 1965-065H
Orbit
LEO
Last TLE update12 hours ago
Origin
Flag of USNRL (US)
ManufacturerNRL
MissionOperational Defense Calibration
Bus & MotorNRL 14", Unknown motor
Mass4 kg wet, 4 kg dry
Launch date (UTC)
1965-08-13 (59 years ago)
Launch vehicle
THOR ABLESTAR
Launch site
Air Force Western Test Range (AFWTR)
Object type
Payload
Rocket body
Debris
Shape & HBRSphere, 0.4 m
Radar Cross Section0.126 m², Small (<0.1 m²)

Expand to show TLE details & history

TLE from 12 hours ago
0 CALSPHERE 4(A)
1  1520U 65065H   24356.10568140  .00000194  00000-0  35506-3 0  9991
2  1520  89.9343 126.9614 0069307 194.8510 227.6110 13.36146279890590
Epoch: 2024-12-21T02:32Z
Definitive object data (Epoch: 2024-12-21T02:32:10.872Z)
Latitude61.9647°
Longitude-1.12276°
Altitude1,169.617 km
Speed7.257 km/s
True Right ascension08h 28m 20s
True Declination61° 49' 46"
Sunlit
Object was in full shadow at TLE epoch
Visualization TLE readout
Latitude37.49564°
Longitude-1.19872°
Altitude1,176.306 km
Speed7.246 km/s
Apparent Right ascension05h 40m 47s
Apparent Declination3° 58' 04"
Sunlit
Object is in full shadow
Visualization observer readout
Local Sidereal Time14:01:51
Azimuth297.423° NW
Elevation-23.412°
Doppler factor1
Orbital elements
Apogee altitude1,172.711 km
Perigee altitude1,068.767 km
Semi-major axis7,498.876 km
Eccentricity0.0069307
Inclination89.9343°
RAAN126.9614°
Arg. of periapsis194.851°
True anomaly227.02783°
Mean anomaly227.611°
Eccentric anomaly227.31908°
Mean motion3.34233 °/min
BSTAR0.00035506
Orbital period107.71 mins
Loading maneuver chart data...
Loading historical data...
Loading historical data...
Loading historical data...
Loading historical data...
Loading historical data...
Loading historical data...
Loading historical data...

CALSPHERE 4(A) Visibility forecast

Observer location: undefined°, undefined

Span
Click to sort rows by Start time (UTC) header in descending order
Start Az.
Max El. time (UTC)
Max El. Az.
Max El.
End time (UTC)
End Az.
12 mins2024-12-21 20:47:37.790Z11.735° NNE2024-12-21 20:53:37.790Z76.148° E38.827°2024-12-21 20:59:37.790Z162.59° S
8 mins2024-12-21 22:37:37.790Z324.718° NNW2024-12-21 22:40:37.790Z291.93° WNW22.17°2024-12-21 22:45:37.790Z238.898° WSW
12 mins2024-12-22 08:53:37.790Z157.786° S2024-12-22 08:58:37.790Z93.036° ESE41.375°2024-12-22 09:05:37.790Z5.175° NNE
9 mins2024-12-22 10:42:37.790Z237.97° WSW2024-12-22 10:46:37.790Z277.266° WNW21.12°2024-12-22 10:51:37.790Z326.314° NNW
|